[[{"header":{"parameterUnit":"m.s-1","parameterCategory":1,"la1":30.2991,"la2":30.254,"lo1":-89.0895,"lo2":-89.0444,"dy":0.0017,"dx":0.0017,"nx":28,"ny":28,"refTime":"2024-08-08T03:00:00:Z","depth":0,"parameterNumber":2,"parameterNumberName":"U-component_of_WINDS"},"data":[0,0,0,0,0,0,0,0,0,0,0,0,0,0,0,0,0,0,0,0,0,0,0,0,0,0,0,0,0,0,0,0,0,0,0,0,0,0,0,0,0,0,0,0,0,0,0,0,0,0,0,0,0,0,0,0,0,0,2.995,2.9951,0,3.0027,3.0028,3.0028,2.9968,2.9965,2.9962,2.996,3.004,3.0044,3.0049,0,0,0,0,0,0,0,0,0,0,0,0,0,2.9752,2.9756,2.995,2.9951,2.9952,3.0026,3.0028,3.0029,2.9968,2.9965,2.9962,2.9959,3.0039,3.0044,3.0049,0,0,0,0,0,0,0,0,0,0,0,0,0,2.9834,2.9757,2.995,2.9931,2.993,3.0026,3.0028,3.0029,2.9969,2.9965,2.9961,2.9957,3.0037,3.0043,3.005,3.017,0,0,3.0071,3.0074,0,0,0,0,0,0,0,0,2.983,2.9842,2.9932,2.9932,2.9931,2.9984,2.9987,3.0076,2.997,2.9954,2.996,2.9955,3.0024,3.0032,3.0055,3.0174,3.0177,3.0072,3.0076,3.0079,3.0081,0,0,0,0,0,0,0,2.9824,2.9838,2.998,2.9934,2.9933,2.9918,2.9926,3.0004,3.001,2.9955,2.9951,2.9961,3.0023,3.0049,3.0056,3.0178,3.0071,3.0077,3.0082,3.0084,3.04,3.0404,0,0,0,0,0,0,2.982,2.9834,2.9978,2.9982,2.987,2.9925,2.9933,2.9971,3.0009,3.0011,2.9964,2.9958,3.0039,3.0049,3.0059,3.0203,3.0079,3.0085,3.0089,3.0396,3.0401,3.0406,0,0,0,0,0,0,2.9816,2.9833,2.9975,2.9907,2.9924,2.9933,2.9975,2.9974,2.9999,3.0016,3.0017,2.9989,3.0036,3.0049,3.0143,3.0205,3.0088,3.0094,3.0391,3.0398,3.0404,3.0491,0,0,0,0,0,0,2.9811,2.9832,2.9878,2.9908,2.9928,3.0057,2.9979,2.9979,3.0011,3.0004,3.0039,3.0041,3.0034,3.0133,3.015,3.0212,3.01,3.0386,3.0394,3.0402,3.0483,3.05,3.0515,0,0,0,0,0,2.9804,2.99,2.9881,2.9898,2.9985,3.0061,3.0072,3.0062,3.0016,3.0063,3.0073,3.004,3.0195,3.0143,3.0162,3.0227,3.0382,3.0392,3.0401,3.0476,3.0497,3.0514,0,0,0,0,0,0,2.9877,2.9903,2.9882,2.9991,3.0024,3.0051,3.0109,3.0084,3.0131,3.0122,3.0107,3.0116,3.0214,3.0229,3.0171,3.0345,3.0281,3.0295,3.0332,3.0352,3.0367,3.0362,3.0105,0,0,0,0,0,2.9905,2.9965,2.9985,3.0079,3.0096,3.01,3.0133,3.0122,3.0156,3.0169,3.0187,3.0221,3.0278,3.0315,3.0368,3.0484,3.0492,3.0538,3.0554,3.0567,3.058,3.0643,3.0664,3.0438,3.0438,3.0437,0,0,2.9965,2.9987,3.0026,3.0094,3.0118,3.0181,3.0112,3.0181,3.0227,3.018,3.027,3.0284,3.0321,3.0427,3.0474,3.0443,3.0643,3.0579,3.0589,3.0595,3.0655,3.0677,3.0696,3.0444,3.0443,3.0442,0,0,3.0107,3.0129,3.021,3.0236,3.0274,3.0275,3.0295,3.0325,3.0332,3.0422,3.0388,3.0443,3.054,3.0568,3.0596,3.0748,3.072,3.0765,3.0848,3.091,3.0928,3.0944,3.1,3.1019,3.0777,3.0778,3.0778,0,3.0177,3.027,3.0255,3.0327,3.0358,3.0317,3.04,3.0425,3.0479,3.0502,3.0465,3.0587,3.0609,3.0721,3.0758,3.0781,3.0804,3.0762,3.0927,3.0942,3.0957,3.101,3.1031,3.0783,3.0782,3.0782,3.0781,0,3.0355,3.0419,3.048,3.0532,3.057,3.0647,3.0645,3.0685,3.067,3.0676,3.0768,3.0793,3.0851,3.0876,3.0862,3.0987,3.0966,3.0929,3.0864,3.0984,3.1034,3.1054,3.0791,3.0789,3.0787,3.0786,0,0,3.0546,3.0588,3.0611,3.0635,3.0673,3.0723,3.0798,3.0853,3.0889,3.0927,3.099,3.1073,3.1038,3.1069,3.1058,3.1113,3.1233,3.1069,3.1069,3.1099,3.1373,3.1402,3.1426,3.1214,3.1218,3.1221,3.137,0,3.069,3.082,3.0809,3.0933,3.0993,3.0954,3.102,3.1051,3.1058,3.111,3.1117,3.1177,3.1126,3.1145,3.1197,3.1208,3.1288,3.1196,3.1274,3.1277,3.1267,3.1451,3.1482,3.1622,3.1389,3.1392,3.1395,0,3.0876,3.0921,3.105,3.1079,3.1104,3.1163,3.1214,3.1264,3.1298,3.1299,3.1334,3.1314,3.139,3.1322,3.1427,3.1365,3.1396,3.1406,3.1411,3.1419,3.1344,3.1466,3.1666,3.1688,3.1425,3.1422,3.142,0,3.1005,3.1096,3.1186,3.1207,3.1243,3.1285,3.1303,3.1333,3.1367,3.1411,3.1434,3.1486,3.1515,3.1556,3.1551,3.1502,3.1659,3.159,3.1663,3.1663,3.1699,3.1697,3.1909,3.1716,3.1716,3.1715,3.1715,0,3.1168,3.1249,3.1244,3.1299,3.1389,3.1375,3.1465,3.1477,3.1504,3.1561,3.1531,3.1586,3.1575,3.1629,3.1626,3.1714,3.1727,3.1731,3.1729,3.1734,3.1734,3.1756,3.1746,3.1721,3.172,3.1719,3.1718,0,3.1327,3.1327,3.1422,3.1448,3.1457,3.1522,3.1545,3.1597,3.1601,3.1674,3.169,3.1697,3.176,3.1758,3.1829,3.1827,3.1935,3.1922,3.1924,3.1922,3.1995,3.1989,3.2229,3.226,3.2046,3.2048,3.205,0,3.1432,3.1494,3.1527,3.1563,3.1582,3.1641,3.1676,3.1664,3.1702,3.1745,3.1793,3.1853,3.19,3.2002,3.2013,3.2068,3.2056,3.2137,3.2064,3.2068,3.2059,3.2056,3.2063,3.2151,3.2154,3.2156,3.2157,0,3.162,3.1616,3.1667,3.1719,3.1761,3.1801,3.1838,3.1869,3.1862,3.1906,3.1969,3.2006,3.2078,3.2138,3.219,3.2208,3.2183,3.218,3.22,3.2207,3.2206,3.2209,3.1965,3.2175,3.2173,3.2172,3.2171,3.217,3.1756,3.1809,3.1841,3.1899,3.1925,3.196,3.2011,3.2021,3.2073,3.2131,3.2121,3.2193,3.2225,3.2293,3.2315,3.2371,3.2343,3.2371,3.2379,3.2387,3.2395,3.2196,3.238,3.238,3.2379,3.2379,3.2379,0,3.1943,3.1961,3.2015,3.2067,3.2113,3.2083,3.2122,3.2162,3.2226,3.2258,3.2305,3.2378,3.2436,3.2452,3.2508,3.255,3.2539,3.2565,3.2563,3.2567,3.2417,3.2395,3.2572,3.2572,3.2572,3.2572,3.2572,3.2572,3.2046,3.2135,3.2135,3.2236,3.2254,3.2323,3.2348,3.238,3.2406,3.2489,3.2537,3.2546,3.2573,3.263,3.2682,3.2685,3.2708,3.2739,3.2738,3.2597,3.2578,3.2559,3.2539,3.2744,3.2744,3.2883,3.2885,3.2886]},{"header":{"parameterUnit":"m.s-1","parameterCategory":1,"la1":30.2991,"la2":30.254,"lo1":-89.0895,"lo2":-89.0444,"dy":0.0017,"dx":0.0017,"nx":28,"ny":28,"refTime":"2024-08-08T03:00:00:Z","depth":0,"parameterNumber":3,"parameterNumberName":"V-component_of_WINDS"},"data":[0,0,0,0,0,0,0,0,0,0,0,0,0,0,0,0,0,0,0,0,0,0,0,0,0,0,0,0,0,0,0,0,0,0,0,0,0,0,0,0,0,0,0,0,0,0,0,0,0,0,0,0,0,0,0,0,0,0,-0.0321,-0.0321,0,-0.0338,-0.0338,-0.0339,-0.0358,-0.0358,-0.0358,-0.0359,-0.0376,-0.0376,-0.0376,0,0,0,0,0,0,0,0,0,0,0,0,0,-0.0304,-0.0305,-0.0321,-0.0321,-0.0321,-0.0338,-0.0338,-0.0339,-0.0358,-0.0358,-0.0358,-0.0359,-0.0376,-0.0376,-0.0376,0,0,0,0,0,0,0,0,0,0,0,0,0,-0.0316,-0.0305,-0.0321,-0.0333,-0.0334,-0.0338,-0.0338,-0.0339,-0.0358,-0.0358,-0.0359,-0.0359,-0.0376,-0.0376,-0.0376,-0.0369,0,0,-0.0377,-0.0377,0,0,0,0,0,0,0,0,-0.0315,-0.0316,-0.0331,-0.0332,-0.0333,-0.0346,-0.0339,-0.0349,-0.0358,-0.0349,-0.0359,-0.0359,-0.0366,-0.0367,-0.0369,-0.037,-0.0371,-0.0377,-0.0377,-0.0377,-0.0377,0,0,0,0,0,0,0,-0.0314,-0.0315,-0.0328,-0.0331,-0.0333,-0.0337,-0.034,-0.0341,-0.0354,-0.035,-0.0351,-0.0353,-0.0366,-0.0369,-0.037,-0.0371,-0.0377,-0.0377,-0.0378,-0.0378,-0.0369,-0.0369,0,0,0,0,0,0,-0.0311,-0.0315,-0.0327,-0.0328,-0.0325,-0.0337,-0.034,-0.0342,-0.0355,-0.0357,-0.0352,-0.0354,-0.0368,-0.0369,-0.037,-0.0364,-0.0377,-0.0378,-0.0378,-0.0369,-0.0369,-0.0369,0,0,0,0,0,0,-0.0311,-0.0312,-0.0326,-0.0322,-0.0324,-0.0337,-0.0339,-0.0342,-0.0344,-0.0357,-0.0359,-0.0352,-0.0368,-0.037,-0.037,-0.0365,-0.0378,-0.0378,-0.037,-0.0369,-0.0369,-0.035,0,0,0,0,0,0,-0.0311,-0.0312,-0.031,-0.0322,-0.0324,-0.0325,-0.0339,-0.0342,-0.0345,-0.0346,-0.0357,-0.0359,-0.0369,-0.0369,-0.037,-0.0365,-0.0378,-0.037,-0.037,-0.0369,-0.0351,-0.0349,-0.0347,0,0,0,0,0,-0.031,-0.0303,-0.0309,-0.0311,-0.0321,-0.0325,-0.0327,-0.0338,-0.0344,-0.0342,-0.035,-0.0359,-0.0365,-0.0369,-0.037,-0.0365,-0.0371,-0.037,-0.0369,-0.0352,-0.035,-0.0347,0,0,0,0,0,0,-0.029,-0.0305,-0.0312,-0.0309,-0.0316,-0.0328,-0.0326,-0.0334,-0.0339,-0.034,-0.0354,-0.0356,-0.0354,-0.036,-0.0364,-0.036,-0.0369,-0.0369,-0.0356,-0.0354,-0.0352,-0.035,-0.0379,0,0,0,0,0,-0.0285,-0.0287,-0.03,-0.0296,-0.0299,-0.0312,-0.0314,-0.0322,-0.0329,-0.0332,-0.0341,-0.0347,-0.0351,-0.0353,-0.0357,-0.0353,-0.0356,-0.035,-0.0348,-0.0346,-0.0345,-0.0344,-0.0342,-0.0366,-0.0366,-0.0366,0,0,-0.0275,-0.0284,-0.0284,-0.0293,-0.0299,-0.0301,-0.0314,-0.0315,-0.0317,-0.0332,-0.0333,-0.0339,-0.0348,-0.0346,-0.0346,-0.0351,-0.034,-0.0345,-0.0343,-0.0343,-0.0343,-0.0341,-0.0339,-0.0365,-0.0365,-0.0365,0,0,-0.0258,-0.0264,-0.0262,-0.0269,-0.0278,-0.0287,-0.0286,-0.0298,-0.0303,-0.0304,-0.0316,-0.0318,-0.0324,-0.0329,-0.0333,-0.032,-0.0328,-0.0321,-0.0309,-0.0308,-0.0307,-0.0305,-0.0301,-0.0299,-0.032,-0.032,-0.032,0,-0.0244,-0.0247,-0.026,-0.0261,-0.0265,-0.028,-0.0278,-0.0283,-0.0293,-0.0295,-0.0301,-0.0309,-0.0316,-0.0316,-0.0313,-0.0315,-0.0315,-0.0319,-0.0306,-0.0304,-0.0303,-0.0299,-0.0297,-0.0319,-0.0319,-0.0319,-0.0319,0,-0.023,-0.0233,-0.023,-0.024,-0.0243,-0.0243,-0.0256,-0.0258,-0.0266,-0.0274,-0.0275,-0.0284,-0.029,-0.0291,-0.0299,-0.0293,-0.0296,-0.0303,-0.0313,-0.03,-0.0296,-0.0295,-0.0317,-0.0318,-0.0318,-0.0318,0,0,-0.02,-0.0218,-0.0217,-0.0222,-0.0234,-0.0236,-0.0236,-0.0243,-0.0245,-0.0251,-0.0252,-0.0258,-0.0265,-0.0269,-0.0278,-0.0277,-0.0267,-0.0285,-0.0286,-0.0282,-0.0261,-0.0255,-0.0253,-0.0273,-0.0273,-0.0272,-0.0261,0,-0.0185,-0.0186,-0.0199,-0.0197,-0.02,-0.0215,-0.0215,-0.0223,-0.0231,-0.0234,-0.0243,-0.0247,-0.0256,-0.0259,-0.0259,-0.0268,-0.0263,-0.0269,-0.0274,-0.0274,-0.0271,-0.0251,-0.0245,-0.0233,-0.0259,-0.0259,-0.0259,0,-0.0167,-0.0173,-0.0172,-0.0185,-0.0187,-0.0187,-0.0195,-0.0198,-0.0207,-0.0213,-0.0219,-0.0229,-0.0231,-0.024,-0.0243,-0.0247,-0.025,-0.0255,-0.0255,-0.0255,-0.0265,-0.0251,-0.0229,-0.0228,-0.0257,-0.0257,-0.0257,0,-0.0145,-0.0153,-0.0154,-0.0158,-0.0173,-0.0173,-0.0179,-0.0189,-0.0193,-0.02,-0.0202,-0.0209,-0.0213,-0.0218,-0.023,-0.0236,-0.0232,-0.0242,-0.0237,-0.0237,-0.0235,-0.0235,-0.0213,-0.0237,-0.0237,-0.0237,-0.0237,0,-0.0127,-0.0125,-0.0144,-0.0145,-0.0144,-0.0158,-0.0157,-0.0165,-0.0174,-0.0176,-0.019,-0.0192,-0.0208,-0.0211,-0.0221,-0.0222,-0.0224,-0.0229,-0.0231,-0.0228,-0.0227,-0.0229,-0.023,-0.0237,-0.0237,-0.0237,-0.0237,0,-0.0102,-0.0114,-0.0116,-0.0131,-0.0135,-0.0133,-0.0146,-0.0147,-0.0157,-0.0159,-0.0161,-0.0176,-0.0181,-0.0194,-0.0202,-0.0209,-0.0208,-0.0212,-0.0205,-0.0206,-0.02,-0.0201,-0.0179,-0.0177,-0.0203,-0.0202,-0.0202,0,-0.0089,-0.0088,-0.0104,-0.0106,-0.0112,-0.0116,-0.012,-0.0135,-0.0139,-0.015,-0.015,-0.0157,-0.0162,-0.0171,-0.0182,-0.0189,-0.0194,-0.0186,-0.0195,-0.0191,-0.0194,-0.0194,-0.0194,-0.0184,-0.0183,-0.0183,-0.0183,0,-0.0065,-0.0072,-0.0077,-0.0085,-0.009,-0.0097,-0.0104,-0.0106,-0.0122,-0.0126,-0.0132,-0.0136,-0.0146,-0.0152,-0.0161,-0.0168,-0.0178,-0.018,-0.0179,-0.0175,-0.0171,-0.0173,-0.0199,-0.018,-0.0181,-0.0181,-0.0181,-0.0181,-0.0046,-0.0047,-0.0058,-0.0063,-0.0071,-0.0078,-0.008,-0.009,-0.0095,-0.0104,-0.0113,-0.0118,-0.0129,-0.0142,-0.0148,-0.0153,-0.0158,-0.0157,-0.0156,-0.0156,-0.0154,-0.017,-0.0154,-0.0155,-0.0155,-0.0155,-0.0155,0,-0.0023,-0.0031,-0.0037,-0.0047,-0.0052,-0.0062,-0.0071,-0.0074,-0.0079,-0.0088,-0.0094,-0.0101,-0.0108,-0.0121,-0.0129,-0.013,-0.0135,-0.0132,-0.0132,-0.0133,-0.0149,-0.0149,-0.0128,-0.0128,-0.0128,-0.0128,-0.0128,-0.0128,-0.0012,-0.0013,-0.0022,-0.0027,-0.0036,-0.0041,-0.0046,-0.0053,-0.006,-0.0068,-0.0074,-0.0082,-0.0093,-0.0102,-0.0109,-0.0112,-0.0115,-0.011,-0.0115,-0.0129,-0.0132,-0.0134,-0.0134,-0.011,-0.011,-0.0099,-0.0099,-0.0098]}]]